Temp
24 24 23 23 22 20 22 23 26 27 29 29 28 27 26 27 25 24 26 26 27 27 25 24 24 24 23 23 22 22 21 21 20 19 19 18 17 17 17 17 17 17 17 17 17 17 17 17 18
24 23 23 21 21 21 22 24 26 27 28 28 28 28 28 29 26 26 25 26 27 27 25 25 24 24 24 23 23 22 21 20 19 19 18 18 17 17 17 17 17 17 17 17 17 17 17 17 17
24 24 23 21 19 21 23 25 27 27 27 28 29 28 28 29 26 25 27 27 27 27 26 26 25 24 24 23 22 22 21 20 19 18 18 17 17 17 17 17 17 17 17 18 18 18 18 17 17
24 23 21 22 21 22 23 25 26 26 27 27 28 29 28 29 27 29 28 27 27 27 26 26 25 24 24 23 22 22 21 20 19 18 18 17 17 17 18 17 17 17 17 18 18 18 18 17 17
23 20 21 21 22 23 24 25 26 26 27 29 27 29 27 28 29 28 29 28 28 26 26 26 25 25 24 23 22 21 21 21 20 18 18 17 17 17 17 17 17 17 17 17 18 18 18 17 17
21 20 21 21 23 24 25 25 27 27 27 28 28 27 27 27 27 28 28 28 28 27 26 26 25 24 24 23 22 21 21 20 20 19 18 18 18 17 17 17 17 17 17 17 17 17 17 17 17
21 20 21 22 23 25 25 26 27 28 27 28 27 28 26 25 28 28 28 28 27 27 26 25 25 24 23 23 22 21 21 20 20 20 19 18 18 18 17 16 16 16 16 16 16 16 17 17 17
21 21 22 22 24 25 27 28 27 28 28 27 27 28 27 25 28 27 26 26 26 25 26 25 24 24 23 22 21 21 20 20 20 19 19 18 18 17 17 16 15 15 16 16 17 17 16 16 16
21 20 20 22 22 24 26 27 27 28 28 28 28 27 26 27 25 25 24 24 24 24 25 24 24 23 22 21 21 20 20 20 20 19 18 18 17 17 17 16 16 15 15 15 16 16 16 16 16
21 18 21 24 23 24 25 25 25 27 26 27 27 27 27 25 23 22 21 21 23 23 24 24 23 22 22 21 21 20 20 20 18 18 18 17 17 17 16 16 16 15 15 15 15 15 16 16 16
21 22 24 24 25 25 24 24 27 26 25 27 26 28 25 22 21 22 22 22 24 25 24 23 22 22 21 21 20 20 20 19 18 18 18 17 17 16 16 16 16 15 15 15 15 16 16 16 16
21 22 25 25 26 25 25 25 25 26 26 27 27 26 25 21 20 21 21 22 23 23 24 23 22 21 21 21 20 21 19 19 18 18 18 17 16 16 16 16 15 15 15 15 15 15 16 15 15
21 23 24 23 23 24 25 24 25 25 27 27 26 25 23 21 22 23 23 23 23 23 23 22 21 21 21 20 20 20 19 18 18 17 17 16 16 16 16 16 16 16 15 15 15 15 15 15 15
21 22 23 23 23 24 24 25 25 26 27 26 26 24 23 21 22 22 22 23 23 22 22 22 21 21 20 20 20 19 18 18 18 17 17 16 16 16 16 16 16 15 15 15 15 15 15 15 15
22 22 22 23 24 23 25 23 24 27 26 25 25 25 23 22 22 21 23 23 22 21 21 22 21 21 20 20 19 19 18 18 18 17 17 16 16 16 16 15 16 16 15 15 15 15 15 15 14
23 21 21 24 25 24 24 23 25 26 24 24 24 24 23 22 21 23 24 23 22 21 21 21 21 20 20 20 19 18 18 18 18 17 17 16 16 15 15 15 16 16 15 15 15 15 14 14 14
19 21 21 22 25 24 23 23 25 25 24 24 25 24 24 23 20 23 23 22 20 21 21 20 20 20 20 19 18 18 18 18 17 17 17 17 16 15 15 15 15 15 15 15 15 14 14 14 14
19 20 19 22 24 23 21 21 24 24 23 23 23 23 22 22 22 22 21 20 20 21 21 20 20 20 19 18 18 18 18 18 18 17 17 17 16 15 15 15 15 15 15 14 14 14 14 14 15
22 21 21 23 24 23 22 21 23 25 23 22 23 24 23 21 20 19 18 19 19 20 20 20 19 19 18 18 18 18 18 18 17 17 16 16 16 15 15 15 15 15 15 15 14 14 14 14 14
21 21 21 23 23 23 22 21 22 23 23 23 24 24 22 21 19 16 15 16 17 18 19 19 19 19 18 18 18 18 18 17 17 16 16 16 16 15 15 15 15 15 14 14 13 14 13 14 14
21 21 22 23 22 23 22 22 23 24 24 23 23 22 21 20 18 15 15 15 16 17 18 19 19 19 18 18 18 18 17 16 16 16 16 16 16 15 15 14 14 14 14 14 14 14 15 14 14
20 22 23 22 21 19 21 18 22 23 23 23 24 23 22 21 15 15 14 14 16 17 19 19 19 19 18 18 18 18 17 16 16 16 15 15 15 15 15 15 15 15 14 14 15 15 15 16 14
22 23 22 22 20 20 21 19 21 22 23 23 24 24 22 17 15 15 15 15 17 18 19 19 19 18 18 18 18 17 17 16 16 16 15 15 15 15 15 15 15 15 15 15 15 15 15 16 16
23 22 20 19 18 17 20 20 21 21 24 24 25 25 19 15 14 14 15 16 17 18 18 18 18 18 18 18 18 18 17 16 16 15 15 15 15 15 15 15 15 15 15 15 15 16 15 16 16
21 19 17 17 17 17 21 19 22 22 22 24 24 23 17 15 15 15 16 15 15 16 17 18 18 18 18 18 18 17 17 16 16 15 15 14 15 15 15 15 16 16 16 16 16 16 16 17 17
21 19 17 18 17 19 21 19 21 23 25 23 23 22 16 14 15 16 16 15 15 16 17 18 18 18 18 18 17 17 17 17 16 15 15 15 15 15 15 15 16 16 16 16 16 16 16 17 17
19 20 19 19 19 18 19 21 24 23 24 23 21 17 15 14 14 15 15 15 15 16 18 18 18 18 18 18 18 17 17 17 16 16 15 15 15 15 15 15 16 16 16 16 16 16 16 16 16
22 21 20 18 19 19 20 22 23 25 26 24 20 18 15 14 15 16 15 15 16 18 19 18 19 19 18 18 18 17 18 17 16 16 16 15 15 15 15 16 16 16 16 16 16 16 16 16 16
18 20 19 19 16 17 19 20 20 25 25 23 20 17 15 15 16 16 15 15 17 18 18 18 18 18 18 18 18 17 18 17 16 16 16 15 15 15 15 16 16 16 16 16 16 15 15 15 15
23 20 19 21 19 18 19 20 23 22 23 22 21 18 15 15 16 16 15 14 15 17 17 18 18 18 18 18 18 17 17 17 16 16 16 16 15 15 16 16 16 16 15 15 14 14 14 14 13
Height
787 788 789 793 818 824 826 810 786 784 776 764 763 770 778 771 786 804 755 755 758 761 766 771 776 780 782 784 785 787 789 790 791 793 794 795 796 798 798 798 799 800 800 801 801 800 801 802 802
786 789 788 796 826 836 824 797 791 778 766 762 762 761 766 767 759 756 754 754 758 760 764 768 773 776 778 781 783 785 787 789 790 792 793 792 794 796 798 797 796 798 799 800 800 801 800 800 801
786 787 793 809 827 831 818 789 780 769 762 762 763 758 759 760 752 750 749 752 756 759 762 766 770 773 776 779 781 783 785 786 788 790 792 793 794 794 793 795 794 795 797 798 798 798 799 798 799
785 788 796 813 820 805 797 780 775 774 760 758 757 764 754 746 746 744 747 750 754 757 761 765 768 771 773 776 778 781 783 784 786 786 788 789 791 792 793 793 792 793 794 795 795 796 796 796 796
786 793 812 817 810 797 783 772 771 774 769 762 762 762 758 746 743 744 744 747 751 754 759 762 765 768 771 774 777 779 780 782 783 784 785 787 788 788 789 791 790 790 791 791 791 793 793 793 794
797 799 819 822 805 787 777 767 767 768 764 760 762 763 755 742 743 743 745 747 751 752 755 760 764 767 769 772 774 776 778 779 781 781 782 784 786 785 786 788 788 787 787 787 788 788 789 791 792
798 808 816 809 798 788 775 761 766 765 765 760 755 764 751 741 742 743 745 748 750 752 755 759 761 764 768 769 772 774 776 777 778 779 780 781 783 783 784 784 784 784 783 784 784 784 785 786 787
790 800 806 804 797 790 763 758 757 762 761 751 751 763 759 738 738 741 745 747 748 750 753 754 758 762 766 768 771 772 774 774 775 776 778 778 780 781 781 781 780 780 780 780 781 780 780 782 784
785 810 813 796 796 780 760 763 756 751 756 752 748 746 740 739 739 740 743 745 746 747 747 751 753 757 762 766 768 770 771 772 773 773 775 776 777 778 778 777 777 776 776 778 778 777 778 779 780
789 810 796 767 767 771 764 765 762 760 757 751 749 740 739 739 739 736 737 738 740 741 743 746 750 754 758 762 766 768 769 769 770 770 771 772 773 774 775 774 774 773 773 774 774 774 773 775 776
779 785 771 764 755 760 762 759 757 760 763 747 751 737 735 737 737 733 732 732 730 735 739 741 747 753 757 760 763 765 765 767 767 767 768 769 770 771 771 771 770 770 770 770 770 770 770 772 773
779 769 763 758 756 760 762 758 756 754 750 739 736 733 732 733 733 729 726 727 730 731 732 739 745 751 756 759 760 762 763 763 764 764 765 766 766 767 767 767 768 768 767 767 767 767 768 770 771
769 761 760 760 760 753 752 756 755 751 733 732 731 729 728 726 724 724 719 723 726 727 729 735 743 749 754 757 759 759 761 760 760 761 762 762 762 763 763 763 763 764 764 765 764 765 766 767 769
759 759 759 760 759 751 753 747 751 739 728 730 726 725 721 720 718 719 721 717 718 720 728 736 742 748 753 756 757 757 758 758 757 758 758 758 758 758 759 759 759 760 761 762 762 763 763 765 767
756 766 762 757 752 752 744 754 748 723 727 728 724 718 714 712 713 713 705 707 711 716 725 734 740 746 750 753 755 756 755 755 754 755 754 754 754 754 755 755 755 756 758 759 760 760 761 763 765
760 762 772 747 744 743 747 754 731 723 726 725 719 714 710 706 704 702 700 702 706 712 724 733 739 744 748 751 752 754 753 751 751 752 752 751 751 750 750 751 752 753 755 756 757 757 759 761 764
769 772 768 759 739 744 747 746 721 718 722 721 712 708 704 700 697 692 695 700 704 710 721 731 736 742 746 749 750 751 750 748 749 748 748 748 747 746 747 747 749 750 752 753 754 756 758 760 763
773 770 766 759 741 742 749 749 726 716 721 718 711 704 701 696 688 688 693 697 702 709 720 730 736 741 745 748 748 748 747 746 745 745 745 745 744 743 743 744 745 747 749 751 753 755 757 759 762
746 754 755 741 737 745 745 744 727 714 718 715 706 699 693 690 685 685 688 693 702 708 717 722 732 739 743 745 746 745 743 743 743 742 742 741 741 741 740 741 743 745 746 748 751 754 756 759 761
743 749 750 734 735 741 740 740 725 714 710 706 699 691 689 687 686 688 690 693 699 706 714 724 729 737 741 743 742 741 741 741 740 739 738 739 738 737 737 739 741 743 745 747 749 752 755 757 760
737 740 741 739 740 735 739 738 728 706 701 697 692 687 683 685 687 692 693 697 703 710 718 725 729 735 739 739 739 740 740 740 739 738 737 737 736 734 735 737 739 742 743 745 746 750 753 756 759
734 725 730 737 750 768 737 767 734 715 707 697 684 681 679 681 691 693 695 700 706 714 719 725 729 734 736 736 738 739 739 738 738 737 736 735 734 733 734 736 738 740 742 743 745 749 752 754 757
717 715 727 737 750 753 747 765 731 718 713 697 684 677 676 683 689 692 696 700 707 714 718 724 729 733 734 735 738 738 737 737 737 736 735 734 733 733 734 736 737 739 741 743 745 749 752 755 756
709 722 736 744 754 767 749 757 727 724 702 692 680 674 681 687 692 695 699 702 709 716 720 724 728 731 733 735 737 737 737 737 736 735 733 732 732 732 734 736 738 739 741 743 746 749 752 754 756
716 738 770 772 772 765 732 749 714 700 691 682 678 676 686 693 690 694 698 703 710 715 720 723 727 729 732 735 736 736 736 736 735 734 733 732 731 733 735 737 738 740 741 744 747 750 752 754 756
708 723 748 766 765 745 719 733 711 680 670 672 671 673 685 691 694 693 699 703 710 715 718 722 726 729 732 734 735 735 735 735 734 734 733 732 732 733 735 737 739 740 741 744 747 751 753 755 758
711 717 716 732 731 743 725 705 682 674 672 672 675 679 686 690 694 694 699 702 709 714 717 720 725 728 731 733 734 735 735 735 735 734 733 732 732 733 735 737 739 740 742 745 748 751 754 756 758
682 696 725 732 742 745 723 709 697 673 666 667 673 678 685 691 693 695 700 703 709 712 716 721 724 727 730 732 733 734 734 735 735 734 733 733 733 734 735 737 739 741 743 746 749 752 754 756 758
696 696 706 710 732 740 736 717 678 664 661 666 670 676 684 686 689 693 699 703 707 712 717 720 724 727 729 731 733 734 734 735 735 734 733 734 734 734 735 737 740 743 745 747 750 752 755 757 759
665 680 687 698 715 720 721 713 659 659 657 661 663 671 682 685 687 692 697 702 707 711 716 719 723 726 729 731 732 734 735 735 736 734 734 734 734 734 735 737 740 743 745 748 750 753 755 758 760
Wind_Speed
10 11 8 3 3 4 3 6 2 4 2 3 4 6 8 6 6 5 5 22 11 30 25 35 30 25 23 21 19 16 15 15 14 13 12 11 11 11 11 10 9 8 8 8 9 8 8 7 6
14 9 3 2 3 1 5 4 5 5 4 1 2 3 4 5 3 3 5 25 16 28 27 35 32 28 26 24 21 19 18 17 16 16 15 14 14 14 13 12 11 11 11 10 10 9 9 9 9
10 3 3 3 3 4 4 5 5 7 8 7 3 3 3 4 3 5 8 26 20 27 30 33 32 30 27 25 22 20 18 17 17 16 15 15 14 14 16 15 14 14 15 14 12 11 12 12 10
4 3 3 2 5 6 5 6 3 8 8 4 4 4 3 8 6 9 14 27 24 28 30 31 33 31 28 26 23 20 18 18 17 16 16 17 15 17 17 17 16 16 16 16 15 14 14 14 13
3 3 1 2 5 5 6 8 3 6 5 3 2 4 4 4 9 14 18 29 27 30 33 32 34 32 29 26 24 20 18 17 14 14 15 16 16 17 16 19 17 18 18 18 17 17 16 17 16
3 3 0 4 5 5 6 8 3 4 4 2 3 2 6 4 11 17 22 28 28 29 32 33 33 31 29 27 24 21 18 16 14 13 14 15 16 15 16 18 17 17 17 18 19 19 19 19 18
5 4 4 4 5 6 5 4 3 2 4 4 2 3 6 5 14 18 26 26 28 28 30 31 32 32 30 27 24 21 18 17 14 13 14 14 14 13 14 15 16 17 18 19 19 19 19 19 18
4 3 2 5 3 8 4 1 3 1 6 1 2 4 8 5 17 21 27 27 28 27 28 31 32 30 29 27 24 20 17 15 15 15 16 16 16 14 13 14 14 14 16 18 20 21 21 23 21
4 1 5 7 6 8 4 2 3 0 4 4 6 6 6 4 17 24 24 25 27 28 30 31 32 32 28 25 22 19 16 15 16 17 18 17 17 15 13 13 15 15 15 16 16 17 21 23 22
5 5 10 8 8 7 2 1 5 4 10 11 5 8 9 12 23 19 17 23 31 34 33 33 33 32 29 25 21 17 15 16 18 18 19 19 19 17 15 14 14 13 14 15 16 17 17 18 20
8 14 15 7 9 2 6 10 1 5 11 14 9 19 3 9 15 17 21 25 38 39 36 35 33 30 28 24 20 16 15 17 19 19 20 21 19 18 17 16 13 13 13 14 16 15 12 17 18
3 11 20 9 6 2 11 7 14 14 18 15 17 11 5 9 14 17 21 27 31 36 38 34 32 29 26 22 18 13 14 16 19 18 17 20 21 21 19 19 15 13 13 13 11 12 11 14 17
7 12 7 9 10 11 12 15 17 17 24 12 13 11 12 11 19 26 29 27 30 37 37 34 31 28 25 20 14 13 14 14 12 13 14 16 19 21 19 18 16 15 13 13 10 12 11 12 15
6 7 8 6 12 13 18 19 3 16 19 15 14 14 11 12 18 19 19 29 35 35 32 30 30 27 23 17 14 13 15 13 13 13 13 15 16 17 18 18 17 16 13 11 10 11 10 11 14
4 4 8 10 9 8 13 7 14 25 11 12 15 15 12 14 13 19 38 35 31 30 28 29 31 27 20 16 13 14 15 13 13 14 13 13 14 16 17 18 17 15 12 11 12 10 11 11 13
1 3 3 4 5 7 10 9 19 14 9 16 14 12 10 14 17 31 35 30 27 26 25 32 30 25 19 16 13 15 13 12 13 13 12 11 11 14 16 16 15 12 11 11 11 10 11 10 12
1 9 9 6 11 6 7 13 17 7 6 14 14 13 12 14 11 28 25 23 24 25 30 34 28 23 19 16 14 13 11 10 11 11 11 9 10 13 15 15 13 12 11 11 10 11 12 12 13
6 5 6 9 3 4 8 11 19 20 8 14 12 12 11 12 17 10 18 21 25 27 35 31 24 20 18 14 12 11 9 8 10 10 11 10 10 10 13 13 12 11 12 11 11 12 12 12 12
10 14 10 8 3 6 7 8 18 16 8 11 13 13 14 11 4 10 21 26 30 35 36 31 26 21 19 13 11 7 4 7 9 10 10 11 9 9 10 12 11 11 13 11 11 13 13 9 12
12 15 14 16 6 5 11 12 16 17 13 11 15 16 11 6 3 4 14 21 29 35 34 29 25 21 16 11 6 2 4 6 8 8 7 8 9 9 10 10 11 11 11 11 14 16 13 6 11
19 21 19 18 4 4 7 11 15 14 7 7 10 11 8 8 7 6 8 17 23 30 32 27 23 18 13 8 4 1 4 3 3 3 2 5 6 6 8 10 11 10 10 12 17 18 14 10 10
24 16 16 14 1 4 4 6 13 15 13 8 11 7 8 4 5 7 10 12 23 29 28 24 20 17 12 7 3 1 1 2 3 4 5 6 4 3 4 7 10 10 11 13 18 18 14 13 11
13 13 13 9 5 3 2 5 6 4 11 12 10 11 7 6 9 11 12 19 25 29 27 23 20 16 11 6 3 1 2 2 4 5 6 5 4 2 3 6 7 9 11 12 16 17 15 16 16
8 6 5 3 2 6 9 7 7 6 15 7 7 3 2 7 8 9 14 23 24 24 24 23 18 15 10 7 3 1 1 2 4 5 6 5 1 4 5 6 8 9 10 12 14 13 12 12 15
9 8 1 2 2 5 5 8 15 9 10 11 11 6 6 6 12 14 16 13 20 24 24 21 16 14 11 7 3 1 1 2 4 6 6 4 0 5 7 6 9 8 9 12 14 12 11 10 12
22 13 7 8 4 4 10 8 6 20 19 11 8 4 9 9 8 13 13 13 18 24 26 20 15 14 11 9 5 1 0 4 5 5 4 5 3 5 9 7 7 6 8 12 12 12 10 9 9
7 15 9 4 2 2 5 6 6 9 8 8 7 7 9 9 9 12 11 16 19 24 25 20 16 13 11 10 5 3 1 4 4 3 4 3 3 5 10 9 8 7 9 11 13 11 10 10 10
14 11 6 3 6 4 5 4 5 6 7 4 5 8 7 7 9 12 10 14 20 27 25 19 17 14 12 9 6 3 2 3 4 3 4 4 2 5 10 10 8 9 9 11 11 11 10 10 10
4 10 3 6 5 5 1 6 7 7 8 8 8 8 10 13 12 13 10 15 22 26 23 20 17 13 12 9 6 3 2 2 4 4 4 4 3 6 9 12 10 9 10 12 11 10 10 10 11
14 9 9 8 10 2 3 5 4 8 6 4 8 10 8 8 11 11 11 14 19 23 22 20 17 15 13 9 6 5 3 2 5 5 6 5 5 9 9 12 12 10 11 10 11 12 12 13 13
Wind_Direction
154 146 138 112 60 62 258 255 251 270 289 302 118 156 191 167 165 210 298 179 181 183 187 191 195 194 198 201 206 209 210 212 216 219 221 225 230 235 232 232 238 253 261 272 276 279 278 272 259
151 142 101 86 104 111 260 262 254 244 257 355 245 181 185 227 205 245 140 174 188 185 186 191 195 197 201 204 209 212 213 217 221 224 224 220 224 233 240 246 244 250 254 255 261 268 271 272 267
140 119 87 111 138 197 224 219 246 293 274 213 225 254 153 227 224 202 179 178 183 187 193 193 195 199 202 206 210 211 215 219 223 226 228 232 234 241 241 247 251 251 252 250 249 259 266 273 266
144 35 40 115 236 250 224 266 270 315 336 209 165 254 276 218 172 201 180 179 184 187 193 195 198 201 204 207 211 213 219 223 225 223 229 236 235 246 251 250 251 256 258 254 254 254 256 264 263
66 62 66 258 249 259 252 257 268 287 277 245 199 247 252 254 222 184 180 181 186 189 196 200 201 204 206 210 213 215 221 226 230 230 234 242 243 251 259 255 249 254 259 257 258 258 256 255 256
56 101 78 240 231 242 256 246 270 229 266 270 237 141 253 255 201 188 180 184 190 190 196 201 203 208 210 212 214 217 223 225 229 238 236 242 250 254 255 262 258 255 258 261 260 259 259 256 254
132 111 225 260 271 275 234 192 206 354 293 294 145 200 263 262 211 194 186 187 194 196 198 203 206 210 214 214 214 219 223 225 231 238 238 240 245 250 256 260 261 258 257 259 262 262 263 261 256
128 117 234 236 238 273 219 230 132 140 305 81 151 259 267 260 196 186 183 192 198 202 205 207 208 211 213 215 217 221 225 233 238 239 237 236 240 245 254 265 264 261 261 257 256 257 260 261 255
112 102 237 223 174 248 216 284 157 117 241 283 220 224 246 278 181 174 185 199 205 208 210 211 209 210 211 214 218 223 227 238 241 238 237 240 242 246 257 263 266 268 261 258 255 254 253 253 252
157 173 229 195 178 245 266 184 346 328 312 282 259 271 265 185 179 175 186 204 209 213 213 213 210 208 207 211 215 220 232 244 240 240 239 243 248 247 259 257 263 267 264 263 265 269 254 245 244
188 219 242 269 225 140 280 285 262 285 288 276 284 296 231 195 202 196 203 203 210 214 215 212 208 207 206 208 209 220 243 243 243 242 244 246 245 245 254 251 255 259 257 258 258 263 270 238 238
197 224 239 266 289 278 259 312 287 275 261 273 281 270 237 202 208 209 206 207 210 214 214 208 204 204 205 203 207 230 233 237 239 244 244 238 237 242 251 244 248 255 260 259 262 257 261 238 233
212 238 246 262 286 272 276 261 266 287 281 274 270 283 239 215 213 221 215 213 214 219 215 205 200 200 198 199 214 219 225 229 235 241 242 237 245 251 248 247 249 251 259 257 262 256 252 237 230
212 221 251 251 266 276 272 275 277 261 270 285 280 267 248 217 217 219 219 219 218 220 215 201 198 193 192 205 214 221 227 232 237 248 252 253 254 251 249 254 249 247 254 257 262 258 246 236 222
228 241 266 235 238 246 270 273 249 265 273 259 267 263 253 227 218 218 220 217 214 216 208 195 186 185 194 202 214 224 233 239 246 252 253 258 258 253 252 250 254 236 247 250 252 250 235 231 225
258 154 258 182 203 254 167 269 265 272 246 258 260 263 254 246 215 228 229 219 211 198 191 181 182 185 194 204 218 233 240 245 253 254 254 260 269 254 245 242 241 235 246 250 250 245 228 225 215
354 255 250 297 246 243 184 287 270 270 252 274 277 274 270 263 235 237 225 209 192 185 182 179 180 188 194 209 217 234 243 256 256 261 255 263 276 259 241 237 236 238 243 248 246 233 218 211 207
196 255 237 234 272 185 267 260 280 279 253 255 264 271 266 259 248 222 197 187 180 177 173 175 179 186 195 204 223 236 255 266 268 274 263 264 279 262 245 238 236 234 238 239 227 211 204 209 207
201 231 240 244 193 226 238 259 273 281 250 261 269 269 273 264 223 176 176 175 168 169 172 170 173 183 190 200 218 233 260 286 288 279 262 265 275 264 251 237 230 232 232 231 211 190 192 180 189
203 225 239 269 228 207 278 275 284 285 271 250 266 275 267 245 191 130 146 150 158 163 164 164 171 180 188 204 209 236 293 294 299 295 269 266 278 269 250 232 231 229 221 211 194 185 172 159 158
217 219 233 244 21 289 313 295 286 282 262 265 257 255 263 257 194 139 131 141 144 152 162 167 169 176 184 190 174 250 292 308 320 321 290 297 300 273 245 235 222 224 220 204 187 184 179 153 175
218 210 233 250 216 242 108 286 289 301 299 265 288 284 266 180 130 142 135 134 145 158 164 165 168 174 173 159 155 247 4 10 320 307 302 308 303 262 242 214 213 230 207 198 187 184 184 177 174
228 194 215 241 230 242 204 273 257 294 289 280 280 279 276 152 157 147 147 143 153 162 165 166 168 173 165 156 173 156 69 12 338 337 313 309 303 205 206 207 208 191 190 185 181 186 187 187 193
164 93 58 49 115 247 231 202 246 216 236 257 262 285 71 128 124 122 137 143 153 164 163 166 173 172 167 175 176 133 91 28 13 352 328 323 284 183 173 172 164 172 182 180 183 189 201 196 197
142 119 211 299 261 229 202 196 245 265 240 231 252 242 140 151 143 149 153 149 151 165 169 170 174 172 180 182 189 191 294 333 357 353 336 350 136 182 172 173 163 174 175 181 187 189 199 203 200
182 168 161 188 206 234 207 213 239 224 241 242 253 183 146 150 167 155 154 147 160 169 170 171 172 179 183 188 191 178 241 1 347 346 9 44 94 158 169 155 153 148 161 173 175 180 187 190 196
188 210 164 133 209 121 234 272 288 220 213 220 190 150 163 156 163 154 155 155 165 171 173 174 180 183 185 192 188 185 61 353 359 359 44 40 114 148 172 167 149 135 138 151 164 172 172 173 175
179 148 171 198 193 225 280 274 221 183 220 250 192 181 160 142 150 155 163 159 172 174 177 180 186 185 188 190 191 186 50 13 28 47 67 61 113 169 177 172 162 145 147 158 161 158 161 168 160
134 179 136 159 149 169 201 260 218 198 197 200 210 177 164 166 165 164 165 168 173 178 182 186 190 190 190 190 192 174 99 40 36 62 78 61 70 154 167 172 162 148 150 159 164 161 161 158 151
203 178 164 196 191 183 152 279 243 231 217 233 187 157 159 155 161 162 164 155 167 179 186 192 194 197 193 189 191 156 130 118 57 73 71 66 92 131 151 162 163 154 152 156 149 152 149 146 138